This demonstration page uses our WeatherBlox Daily Observations layout. Learn more.

Left ArrowRight Arrow

39.51506, -84.39828

Hourly Observations for December 19, 2015

Temp ( °F °C ) Dew Point ( °F °C ) Humidity (%) Winds ( mph kmh ) Pressure ( in mb ) Visibility ( mi km ) Precip ( " mm )
12:15 am 00:15 Partly Cloudy 34 1.2 17 -8.2 50 50 SW 12 19 30.21 1023 10 16.0934 N/A
12:35 am 00:35 Clear 32 undefined 16 -9 51 51 SW 12 19 30.21 1023 10 16.0934 N/A
12:55 am 00:55 Partly Cloudy 32 0.1 16 -8.7 52 52 SW 12 19 30.21 1023 10 16.0934 N/A
1:15 am 01:15 Mostly Cloudy 34 1.2 18 -7.8 52 52 SW 13 20 30.21 1023 10 16.0934 N/A
1:35 am 01:35 Cloudy 34 1.2 18 -7.6 52 52 SW 12 19 30.21 1023 10 16.0934 N/A
1:55 am 01:55 Partly Cloudy 32 undefined 17 -8.6 53 53 SW 12 19 30.21 1023 10 16.0934 N/A
2:15 am 02:15 Partly Cloudy 32 undefined 17 -8.2 54 54 SW 10 17 30.21 1023 10 16.0934 N/A
2:35 am 02:35 Clear 29 -1.5 17 -8.4 60 60 SW 8 13 30.21 1023 10 16.0934 N/A
2:55 am 02:55 Clear 29 -1.5 18 -7.8 63 63 WSW 7 11 30.21 1023 10 16.0934 N/A
3:15 am 03:15 Clear 29 -1.5 18 -7.8 63 63 WSW 8 13 30.24 1024 10 16.0934 N/A
3:35 am 03:35 Clear 29 -1.5 19 -7.5 64 64 WSW 6 9 30.24 1024 10 16.0934 N/A
3:55 am 03:55 Clear 29 -1.5 19 -7.5 64 64 WSW 5 7 30.24 1024 10 16.0934 N/A
4:15 am 04:15 Clear 29 -1.5 19 -7.3 65 65 WSW 5 7 30.24 1024 10 16.0934 N/A
4:35 am 04:35 Clear 28 -2.4 19 -7.5 68 68 WSW 5 7 30.24 1024 10 16.0934 N/A
4:55 am 04:55 Partly Cloudy 29 -1.5 19 -7.4 65 65 W 8 13 30.24 1024 10 16.0934 N/A
5:15 am 05:15 Clear 29 -1.5 18 -7.8 63 63 W 7 11 30.24 1024 10 16.0934 N/A
5:35 am 05:35 Clear 29 -1.5 19 -7.1 66 66 WSW 8 13 30.27 1025 10 16.0934 N/A
5:55 am 05:55 Clear 29 -1.5 18 -7.8 63 63 WSW 12 19 30.27 1025 10 16.0934 N/A
6:15 am 06:15 Clear 29 -1.5 17 -8.6 59 59 WSW 9 15 30.27 1025 10 16.0934 N/A
6:35 am 06:35 Clear 29 -1.5 15 -9.5 55 55 W 12 19 30.3 1026 10 16.0934 N/A
6:55 am 06:55 Clear 29 -1.5 15 -9.4 55 55 W 10 17 30.3 1026 10 16.0934 N/A
7:15 am 07:15 Clear 29 -1.5 15 -9.6 54 54 W 8 13 30.33 1027 10 16.0934 N/A
7:35 am 07:35 Clear 29 -1.5 15 -9.7 54 54 W 8 13 30.33 1027 10 16.0934 N/A
7:55 am 07:55 Sunny 29 -1.5 16 -8.9 57 57 W 6 9 30.33 1027 10 16.0934 N/A
8:15 am 08:15 Sunny 29 -1.5 16 -9 57 57 W 6 9 30.36 1028 10 16.0934 N/A
8:35 am 08:35 Sunny 29 -1.5 15 -9.3 56 56 W 14 22 30.36 1028 10 16.0934 N/A
8:55 am 08:55 Sunny 29 -1.5 10 -12 45 45 W 14 22 30.39 1029 10 16.0934 N/A
9:15 am 09:15 Sunny 29 -1.5 13 -10.7 50 50 WNW 9 15 30.39 1029 10 16.0934 N/A
9:35 am 09:35 Sunny 29 -1.5 12 -11 49 49 W 18 30 30.42 1030 10 16.0934 N/A
9:55 am 09:55 Sunny 29 -1.5 11 -11.7 46 46 W 16 26 30.42 1030 10 16.0934 N/A
10:15 am 10:15 Sunny 29 -1.5 9 -12.7 43 43 W 15 24 30.45 1031 10 16.0934 N/A
10:35 am 10:35 Sunny 29 -1.5 7 -13.7 39 39 W 16 26 30.45 1031 10 16.0934 N/A
10:55 am 10:55 Sunny 31 -0.7 6 -14.3 35 35 WNW 12 19 30.45 1031 10 16.0934 N/A
11:15 am 11:15 Sunny 32 undefined 6 -14.5 33 33 W 17 28 30.45 1031 10 16.0934 N/A
11:35 am 11:35 Sunny 33 0.4 5 -14.9 31 31 W 12 19 30.48 1032 10 16.0934 N/A
11:55 am 11:55 Sunny 34 1.2 6 -14.2 31 31 W 13 20 30.45 1031 10 16.0934 N/A
12:15 pm 12:15 Sunny 34 1.2 5 -14.9 29 29 W 15 24 30.45 1031 10 16.0934 N/A
12:35 pm 12:35 Sunny 34 1.2 4 -15.4 28 28 W 16 26 30.45 1031 10 16.0934 N/A
12:55 pm 12:55 Sunny 34 1.2 2 -16.4 26 26 W 12 19 30.45 1031 10 16.0934 N/A
1:15 pm 13:15 Sunny 34 1.3 3 -15.9 27 27 W 13 20 30.45 1031 10 16.0934 N/A
1:35 pm 13:35 Sunny 37 2.6 6 -14.4 28 28 W 10 17 30.45 1031 10 16.0934 N/A
1:55 pm 13:55 Sunny 36 2.3 2 -16.8 23 23 W 14 22 30.45 1031 10 16.0934 N/A
2:15 pm 14:15 Sunny 37 2.6 3 -16.2 24 24 W 14 22 30.45 1031 10 16.0934 N/A
2:35 pm 14:35 Sunny 37 2.6 4 -15.8 25 25 WSW 10 17 30.45 1031 10 16.0934 N/A
2:55 pm 14:55 Sunny 37 2.6 4 -15.4 25 25 WSW 12 19 30.45 1031 10 16.0934 N/A
3:15 pm 15:15 Sunny 37 2.6 4 -15.5 25 25 W 9 15 30.45 1031 10 16.0934 N/A
3:35 pm 15:35 Sunny 37 2.6 5 -15 26 26 WSW 13 20 30.48 1032 10 16.0934 N/A
3:55 pm 15:55 Sunny 37 2.6 5 -15.1 26 26 W 8 13 30.48 1032 10 16.0934 N/A
4:15 pm 16:15 Sunny 37 2.6 5 -15.2 26 26 W 10 17 30.48 1032 10 16.0934 N/A
4:35 pm 16:35 Sunny 37 2.6 6 -14.6 27 27 WSW 7 11 30.48 1032 10 16.0934 N/A
4:55 pm 16:55 Sunny 34 1.3 4 -15.6 27 27 W 9 15 30.48 1032 10 16.0934 N/A
5:15 pm 17:15 Sunny 34 1.2 8 -13.1 34 34 WSW 6 9 30.5 1033 10 16.0934 N/A
5:35 pm 17:35 Clear 34 1.2 10 -12.1 37 37 WSW 6 9 30.5 1033 10 16.0934 N/A
5:55 pm 17:55 Clear 34 1.2 11 -11.8 38 38 WSW 5 7 30.5 1033 10 16.0934 N/A
6:15 pm 18:15 Clear 34 1.2 11 -11.9 37 37 WSW 5 7 30.5 1033 10 16.0934 N/A
6:35 pm 18:35 Clear 32 undefined 14 -10 47 47 N N/A 30.53 1034 10 16.0934 N/A
6:55 pm 18:55 Clear 29 -1.5 14 -10 53 53 N N/A 30.53 1034 10 16.0934 N/A
7:15 pm 19:15 Clear 29 -1.4 15 -9.6 54 54 W 5 7 30.53 1034 10 16.0934 N/A
7:35 pm 19:35 Clear 29 -1.5 17 -8.6 59 59 SW 3 6 30.53 1034 10 16.0934 N/A
7:55 pm 19:55 Clear 29 -1.5 17 -8.5 59 59 N N/A 30.53 1034 10 16.0934 N/A
8:15 pm 20:15 Clear 27 -2.8 18 -8 68 68 N N/A 30.56 1035 10 16.0934 N/A
8:35 pm 20:35 Clear 29 -1.5 20 -6.7 68 68 N N/A 30.53 1034 10 16.0934 N/A
8:55 pm 20:55 Clear 26 -3.2 17 -8.3 68 68 N N/A 30.56 1035 10 16.0934 N/A
9:15 pm 21:15 Clear 27 -2.8 19 -7.1 73 73 N N/A 30.56 1035 10 16.0934 N/A
9:35 pm 21:35 Clear 27 -2.8 18 -7.6 70 70 N N/A 30.56 1035 10 16.0934 N/A
9:55 pm 21:55 Clear 27 -2.8 18 -7.6 70 70 N N/A 30.56 1035 10 16.0934 N/A
10:15 pm 22:15 Clear 24 -4.2 17 -8.4 73 73 N N/A 30.56 1035 10 16.0934 N/A
10:35 pm 22:35 Clear 24 -4.2 18 -8 75 75 N N/A 30.56 1035 10 16.0934 N/A
10:55 pm 22:55 Clear 24 -4.2 18 -8 75 75 N N/A 30.56 1035 10 16.0934 N/A
11:15 pm 23:15 Clear 24 -4.2 18 -7.9 76 76 N N/A 30.56 1035 10 16.0934 N/A
11:35 pm 23:35 Clear 23 -4.9 17 -8.5 76 76 N N/A 30.56 1035 10 16.0934 N/A
11:55 pm 23:55 Clear 24 -4.2 18 -7.8 76 76 N N/A 30.56 1035 10 16.0934 N/A

Powered by AerisWeather